Hourly Data Report for October 17, 2016

All times are specified in Local Standard Time (LST). Add 1 hour to adjust for Daylight Saving Time where and when it is observed.

PANGNIRTUNG
NUNAVUT

66°08'36.300" N
65°42'40.500" W
22.60 m
2403049
71826
WXP

Download Data

Hourly Data (October 2016)
Hourly Data Report for October 17, 2016
Temp Definition
°C
Dew Point Temp Definition
°C
Rel Hum Definition
%
Wind Dir Definition
10's deg

Wind Spd Definition
km/h
Visibility Definition
km
Stn Press Definition
kPa
Hmdx Definition


Wind Chill Definition


Weather Definition


TIME
00:00 -9.0 -11.6 82 25 6   101.32   -12 LegendNANA
01:00 -9.2 -11.7 82 23 8   101.35   -14 LegendNANA
02:00 -9.4 -11.8 83 19 3   101.38   -11 LegendNANA
03:00 -9.6 -11.7 84 29 5   101.46   -12 LegendNANA
04:00 -9.7 -12.8 78 15 6   101.52   -13 LegendNANA
05:00 -9.0 -12.1 78 22 9   101.52   -14 LegendNANA
06:00 -9.3 -12.4 79 20 6   101.55   -13 LegendNANA
07:00 -9.8 -13.2 76 26 3   101.57   -12 LegendNANA
08:00 -9.7 -13.4 74 25 3   101.57   -11 LegendNANA
09:00 -10.0 -13.4 76 20 4   101.58   -12 LegendNANA
10:00 -8.3 -12.4 72 21 3   101.59   -10 LegendNANA
11:00 -8.6 -12.9 71 15 5   101.61   -11 LegendNANA
12:00 -7.4 -12.5 67 25 2   101.61   -8 LegendNANA
13:00 -6.1 -11.9 64 29 12   101.61   -11 LegendNANA
14:00 -5.7 -11.9 61 29 11   101.62   -10 LegendNANA
15:00 -5.6 -11.4 63 30 9   101.66   -10 LegendNANA
16:00 -6.5 -11.7 67 25 8   101.61   -10 LegendNANA
17:00 -7.0 -11.8 69 19 8   101.61   -11 LegendNANA
18:00 -6.4 -11.2 69 21 2   101.58   -7 LegendNANA
19:00 -6.6 -11.5 68 21 8   101.56   -10 LegendNANA
20:00 -6.1 -10.3 72 21 4   101.55   -8 LegendNANA
21:00 -5.8 -10.1 72 14 4   101.53   -8 LegendNANA
22:00 -5.7 -9.4 75 10 12   101.50   -11 LegendNANA
23:00 -5.8 -9.1 77 9 7   101.48   -9 LegendNANA

Notes on Data Quality.

Legend

  • E = Estimated
  • M = Missing
  • NA = Not Available
  • ‡ = Partner data that is not subject to review by the National Climate Archives
Date modified: